Location: Unspecified
(0.0000°N, 0.0000°E)
Time: 20:09:56
(UTC+00:00)

Hubble Space Telescope - Pass Details

Date: 29 May 2023
Orbit: 525 x 528 km, 28.5° (Epoch: 04 June)

Event Time Altitude Azimuth Distance (km) Brightness Sun altitude
Rises 19:22:05 0° 335° (NNW) 2,630 5.0 -19.6°
Reaches altitude 10° 19:26:47 10° 24° (NNE) 1,744 3.4 -20.7°
Maximum altitude 19:26:58 10° 27° (NNE) 1,743 3.3 -20.7°
Drops below altitude 10° 19:27:08 10° 29° (NNE) 1,744 3.3 -20.8°
Enters shadow 19:27:23 10° 32° (NNE) 1,751 3.3 -20.8°
